EW8567 Weather Reports


Display with metric or nautical units.
time (UTC)temp
F
wind
direction
speed
MPH
gust
MPH
rain 1hr
in
rain 24hr
in
rain mn
in
humidity
%
barometer
mb
20180921084008 58 319 9.0 17.0 0.00 0.00 0.00 69 1004.3
20180921083508 58 316 8.0 15.0 0.00 0.00 0.00 70 1004.3
20180921083010 58 311 7.0 15.0 0.00 0.00 0.00 71 1004.1
20180921082504 58 310 8.0 15.0 0.00 0.00 0.00 71 1004.1
20180921082009 58 314 7.0 16.0 0.00 0.00 0.00 71 1004.3
20180921081506 58 317 8.0 19.0 0.00 0.00 0.00 72 1004.2
20180921081009 58 308 9.0 19.0 0.00 0.00 0.00 71 1004.0
20180921080505 57 300 8.0 16.0 0.00 0.00 0.00 73 1004.1
20180921080009 57 319 9.0 17.0 0.00 0.00 0.00 73 1004.0
20180921075504 57 322 9.0 17.0 0.00 0.00 0.00 73 1004.0
20180921075009 57 314 7.0 15.0 0.00 0.00 0.00 74 1004.0
20180921074505 57 309 7.0 15.0 0.00 0.00 0.00 75 1003.9
20180921074009 57 313 6.0 15.0 0.00 0.00 0.00 75 1004.0
20180921073505 57 311 5.0 12.0 0.00 0.00 0.00 75 1003.9
20180921073008 57 300 6.0 12.0 0.00 0.00 0.00 76 1003.9
20180921072504 56 301 5.0 11.0 0.00 0.00 0.00 76 1004.0
20180921072009 56 307 6.0 15.0 0.00 0.00 0.00 76 1003.9
20180921071505 56 314 6.0 15.0 0.00 0.00 0.00 76 1003.8
20180921071008 56 319 6.0 15.0 0.00 0.00 0.00 76 1003.7
20180921070504 56 318 7.0 15.0 0.00 0.00 0.00 76 1003.8
20180921070008 56 317 6.0 15.0 0.00 0.00 0.00 76 1003.7
20180921065504 56 330 4.0 15.0 0.00 0.00 0.00 77 1003.6
20180921065009 56 329 4.0 10.0 0.00 0.00 0.00 77 1003.7
20180921064505 56 314 5.0 12.0 0.00 0.00 0.00 77 1003.7
20180921064009 56 312 7.0 12.0 0.00 0.00 0.00 77 1003.7
20180921063504 56 308 5.0 11.0 0.00 0.00 0.00 80 1003.5
20180921063008 56 320 3.0 13.0 0.00 0.00 0.00 80 1003.3
20180921062505 56 333 5.0 13.0 0.00 0.00 0.00 80 1003.4
20180921062009 55 324 7.0 14.0 0.00 0.00 0.00 80 1003.4
20180921061504 55 322 8.0 15.0 0.00 0.00 0.00 80 1003.3
20180921061009 55 319 6.0 15.0 0.00 0.00 0.00 81 1003.3
20180921060504 55 328 5.0 13.0 0.00 0.00 0.00 83 1003.3
20180921060009 55 359 6.0 15.0 0.00 0.00 0.00 83 1003.3
20180921055505 54 346 6.0 15.0 0.00 0.00 0.00 84 1003.3
20180921055008 54 327 6.0 15.0 0.00 0.00 0.00 85 1003.1
20180921054504 54 325 6.0 15.0 0.00 0.00 0.00 85 1003.3
20180921054009 53 313 7.0 15.0 0.00 0.00 0.00 86 1003.2
20180921053504 53 325 7.0 13.0 0.00 0.00 0.00 86 1003.2
20180921053009 53 338 5.0 13.0 0.00 0.00 0.00 86 1003.3
20180921052505 53 335 5.0 11.0 0.00 0.00 0.00 87 1003.2
20180921052009 53 333 6.0 12.0 0.00 0.00 0.00 87 1003.3
20180921051504 53 335 6.0 13.0 0.00 0.00 0.00 87 1003.3
20180921051008 53 324 5.0 13.0 0.00 0.00 0.00 88 1003.2
20180921050505 52 305 4.0 11.0 0.00 0.00 0.00 88 1003.3
20180921050009 52 323 5.0 11.0 0.00 0.00 0.00 88 1003.0
20180921045504 52 340 5.0 14.0 0.00 0.00 0.00 88 1003.1
20180921045009 52 328 5.0 14.0 0.00 0.00 0.00 88 1003.1
20180921044505 52 314 4.0 10.0 0.00 0.00 0.00 89 1003.2
20180921044009 52 306 4.0 11.0 0.00 0.00 0.00 89 1002.9
20180921043504 52 306 5.0 11.0 0.00 0.00 0.00 89 1003.0
20180921043010 52 314 6.0 15.0 0.00 0.00 0.00 89 1003.0
20180921042505 52 313 7.0 15.0 0.00 0.00 0.00 90 1003.0
20180921042009 51 311 6.0 12.0 0.00 0.00 0.00 90 1002.9
20180921041504 51 311 6.0 13.0 0.00 0.00 0.00 90 1003.0
20180921041009 51 309 6.0 13.0 0.00 0.00 0.00 90 1002.9
20180921040506 51 299 7.0 16.0 0.00 0.00 0.00 91 1003.0
20180921040010 51 299 7.0 16.0 0.00 0.00 0.00 91 1002.9
20180921035504 51 308 6.0 15.0 0.00 0.00 0.00 91 1003.0
20180921035009 51 294 6.0 11.0 0.00 0.00 0.00 91 1003.0
20180921034505 50 296 6.0 12.0 0.00 0.00 0.00 91 1002.9
20180921034008 50 307 6.0 12.0 0.00 0.00 0.00 91 1002.9
20180921033504 50 305 6.0 12.0 0.00 0.00 0.00 91 1002.8
20180921033009 50 306 5.0 11.0 0.00 0.00 0.00 91 1002.8
20180921032504 50 302 4.0 11.0 0.00 0.00 0.00 92 1002.8
20180921032009 50 296 5.0 11.0 0.00 0.00 0.00 92 1002.9
20180921031504 49 297 5.0 10.0 0.00 0.00 0.00 92 1002.8
20180921031009 49 292 4.0 10.0 0.00 0.00 0.00 92 1002.8
20180921030504 49 287 5.0 11.0 0.00 0.00 0.00 92 1002.8
20180921030009 49 298 6.0 11.0 0.00 0.00 0.00 92 1002.8
20180921025504 49 289 7.0 13.0 0.00 0.00 0.00 92 1002.8
20180921025009 49 282 7.0 13.0 0.00 0.00 0.00 92 1002.8
20180921024506 48 292 6.0 13.0 0.00 0.00 0.00 92 1002.8
20180921024009 48 295 5.0 13.0 0.00 0.00 0.00 92 1002.8
20180921023505 48 291 5.0 9.0 0.00 0.00 0.00 92 1002.7
20180921023009 48 294 5.0 9.0 0.00 0.00 0.00 92 1002.7
20180921022505 47 296 5.0 11.0 0.00 0.00 0.00 91 1002.6
20180921022009 47 301 5.0 11.0 0.00 0.00 0.00 91 1002.7
20180921021504 47 298 5.0 9.0 0.00 0.00 0.00 91 1002.7
20180921021008 47 289 5.0 8.0 0.00 0.00 0.00 91 1002.5
20180921020504 47 289 4.0 8.0 0.00 0.00 0.00 91 1002.6
20180921020010 47 292 3.0 8.0 0.00 0.00 0.00 91 1002.5
20180921015504 47 294 4.0 9.0 0.00 0.00 0.00 91 1002.5
20180921015009 47 304 5.0 9.0 0.00 0.00 0.00 91 1002.5
20180921014504 47 304 4.0 8.0 0.00 0.00 0.00 91 1002.4
20180921014010 47 293 4.0 8.0 0.00 0.00 0.00 90 1002.6
20180921013504 47 294 5.0 9.0 0.00 0.00 0.00 90 1002.3
20180921013008 47 287 5.0 10.0 0.00 0.00 0.00 90 1002.2
20180921012504 47 276 5.0 10.0 0.00 0.00 0.00 90 1002.3
20180921012009 47 273 5.0 10.0 0.00 0.00 0.00 90 1002.3
20180921011505 47 277 4.0 8.0 0.00 0.00 0.00 90 1002.3
20180921011009 47 289 3.0 8.0 0.00 0.00 0.00 90 1002.3
20180921010505 47 291 4.0 8.0 0.00 0.00 0.00 90 1002.3
20180921010009 47 284 4.0 8.0 0.00 0.00 0.00 90 1002.3
20180921005506 47 285 4.0 9.0 0.00 0.00 0.00 90 1002.4
20180921005009 47 285 4.0 9.0 0.00 0.00 0.00 89 1002.6
20180921004504 47 281 4.0 7.0 0.00 0.00 0.00 89 1002.6
20180921004009 47 292 3.0 6.0 0.00 0.00 0.00 89 1002.6
20180921003505 47 297 4.0 6.0 0.00 0.00 0.00 89 1002.5
20180921003009 47 289 4.0 7.0 0.00 0.00 0.00 89 1002.4
20180921002505 47 278 4.0 8.0 0.00 0.00 0.00 89 1002.5
20180921002009 47 275 4.0 9.0 0.00 0.00 0.00 89 1002.4
20180921001504 47 282 4.0 9.0 0.00 0.00 0.00 89 1002.3
20180921001009 47 288 4.0 8.0 0.00 0.00 0.00 89 1002.4
20180921000505 47 298 4.0 9.0 0.00 0.00 0.00 89 1002.3
20180921000009 47 301 4.0 9.0 0.00 0.00 0.00 89 1002.3
20180920235504 47 296 4.0 9.0 0.00 0.00 0.00 89 1002.3
20180920235008 47 295 5.0 9.0 0.00 0.00 0.00 89 1002.4
20180920234504 47 285 4.0 9.0 0.00 0.00 0.00 89 1002.4
20180920233504 47 283 4.0 8.0 0.00 0.00 0.00 88 1002.5
20180920233008 47 292 3.0 8.0 0.00 0.00 0.00 88 1002.6
20180920232504 47 298 3.0 7.0 0.00 0.00 0.00 88 1002.7
20180920232009 47 307 3.0 7.0 0.00 0.00 0.00 88 1002.8
20180920231504 47 308 3.0 7.0 0.00 0.00 0.00 88 1002.7
20180920231008 47 300 3.0 7.0 0.00 0.00 0.00 88 1002.6
20180920230505 48 302 3.0 7.0 0.00 0.00 0.00 88 1002.6
20180920230008 48 308 4.0 7.0 0.00 0.00 0.00 88 1002.6
20180920225505 48 311 3.0 7.0 0.00 0.00 0.00 87 1002.5
20180920225009 48 306 4.0 8.0 0.00 0.00 0.00 87 1002.6
20180920224505 48 301 4.0 8.0 0.00 0.00 0.00 87 1002.6
20180920224009 48 305 3.0 7.0 0.00 0.00 0.00 88 1002.5
20180920223504 48 301 3.0 9.0 0.00 0.00 0.00 87 1002.7
20180920223008 48 304 4.0 9.0 0.00 0.00 0.00 87 1002.7
20180920222505 48 293 4.0 8.0 0.00 0.00 0.00 87 1002.7
20180920222009 48 289 4.0 8.0 0.00 0.00 0.00 87 1002.7
20180920221505 48 301 4.0 8.0 0.00 0.00 0.00 87 1002.7
20180920221009 48 302 3.0 6.0 0.00 0.00 0.00 86 1002.6
20180920220504 48 305 3.0 6.0 0.00 0.00 0.00 86 1002.7
20180920220009 48 298 3.0 9.0 0.00 0.00 0.00 86 1002.8
20180920215504 48 296 3.0 9.0 0.00 0.00 0.00 86 1002.8
20180920215008 49 309 2.0 4.0 0.00 0.00 0.00 85 1002.8
20180920214504 48 319 2.0 5.0 0.00 0.00 0.00 85 1002.8
20180920214008 49 315 2.0 5.0 0.00 0.00 0.00 85 1002.8
20180920213504 49 314 3.0 6.0 0.00 0.00 0.00 85 1003.0
20180920213009 49 316 3.0 6.0 0.00 0.00 0.00 85 1002.9
20180920212505 49 322 3.0 8.0 0.00 0.00 0.00 85 1002.9
20180920212009 49 317 3.0 8.0 0.00 0.00 0.00 85 1003.0
20180920211505 49 310 3.0 8.0 0.00 0.00 0.00 85 1002.9
20180920211008 49 310 3.0 8.0 0.00 0.00 0.00 85 1002.8
20180920210504 49 308 3.0 8.0 0.00 0.00 0.00 85 1002.9
20180920210009 50 302 4.0 9.0 0.00 0.00 0.00 85 1002.8
20180920205505 50 309 4.0 9.0 0.00 0.00 0.00 85 1002.9
20180920205008 50 314 4.0 9.0 0.00 0.00 0.00 85 1002.9
20180920204504 50 311 4.0 9.0 0.00 0.00 0.00 85 1002.8
20180920204010 50 310 3.0 8.0 0.00 0.00 0.00 85 1002.9
20180920203505 50 305 4.0 9.0 0.00 0.00 0.00 85 1002.9
20180920203009 50 300 4.0 9.0 0.00 0.00 0.00 85 1002.9
20180920202505 50 297 3.0 6.0 0.00 0.00 0.00 85 1002.9
20180920202009 50 304 4.0 8.0 0.00 0.00 0.00 85 1002.9
20180920201505 50 304 4.0 8.0 0.00 0.00 0.00 86 1003.0
20180920201019 50 296 4.0 8.0 0.00 0.00 0.00 86 1002.9
20180920200505 50 303 4.0 8.0 0.00 0.00 0.00 86 1003.0
20180920200009 50 308 3.0 8.0 0.00 0.00 0.00 86 1002.9
20180920195505 50 311 4.0 8.0 0.00 0.00 0.00 86 1002.9
20180920195009 50 309 4.0 8.0 0.00 0.00 0.00 85 1003.0
20180920194505 50 297 4.0 8.0 0.00 0.00 0.00 85 1002.9
20180920194009 50 286 3.0 7.0 0.00 0.00 0.00 86 1003.0
20180920193504 50 293 4.0 11.0 0.00 0.00 0.00 86 1003.0
20180920193008 50 300 4.0 11.0 0.00 0.00 0.00 86 1003.1
20180920192505 49 304 4.0 8.0 0.00 0.00 0.00 85 1003.1
20180920192009 50 304 4.0 8.0 0.00 0.00 0.00 85 1003.2
20180920191505 49 304 4.0 8.0 0.00 0.00 0.00 86 1003.3
20180920191008 49 306 5.0 8.0 0.00 0.00 0.00 85 1003.3
20180920190505 49 312 5.0 10.0 0.00 0.00 0.00 86 1003.3
20180920190010 49 302 5.0 10.0 0.00 0.00 0.00 85 1003.3
20180920185505 49 284 3.0 7.0 0.00 0.00 0.00 85 1003.4
20180920185008 49 287 3.0 6.0 0.00 0.00 0.00 85 1003.4
20180920184505 49 285 4.0 8.0 0.00 0.00 0.00 85 1003.4
20180920184008 49 285 5.0 8.0 0.00 0.00 0.00 85 1003.5
20180920183505 49 288 5.0 8.0 0.00 0.00 0.00 84 1003.6
20180920183009 49 281 5.0 10.0 0.00 0.00 0.00 84 1003.6
20180920182505 49 287 5.0 10.0 0.00 0.00 0.00 84 1003.5
20180920182009 49 290 4.0 8.0 0.00 0.00 0.00 83 1003.6
20180920181505 50 283 4.0 8.0 0.00 0.00 0.00 83 1003.7
20180920181009 50 286 4.0 8.0 0.00 0.00 0.00 83 1003.6
20180920180505 50 284 4.0 8.0 0.00 0.00 0.00 83 1003.6
20180920180008 50 275 4.0 8.0 0.00 0.00 0.00 83 1003.6
20180920175505 50 273 4.0 8.0 0.00 0.00 0.00 83 1003.6
20180920175009 50 277 4.0 8.0 0.00 0.00 0.00 82 1003.5
20180920174505 51 286 3.0 7.0 0.00 0.00 0.00 83 1003.7
20180920174009 50 295 4.0 8.0 0.00 0.00 0.00 82 1003.6
20180920173505 51 298 4.0 8.0 0.00 0.00 0.00 83 1003.6
20180920173009 51 304 3.0 8.0 0.00 0.00 0.00 83 1003.6
20180920172505 51 303 3.0 6.0 0.00 0.00 0.00 83 1003.5
20180920172009 51 303 3.0 8.0 0.00 0.00 0.00 83 1003.6
20180920171504 51 307 4.0 8.0 0.00 0.00 0.00 83 1003.7
20180920171009 51 307 4.0 8.0 0.00 0.00 0.00 83 1003.8
20180920170504 51 301 4.0 8.0 0.00 0.00 0.00 83 1003.8
20180920170009 51 299 5.0 8.0 0.00 0.00 0.00 82 1003.6
20180920165504 51 299 5.0 10.0 0.00 0.00 0.00 82 1003.7
20180920165009 51 296 5.0 10.0 0.00 0.00 0.00 83 1003.7
20180920164504 51 289 5.0 10.0 0.00 0.00 0.00 82 1003.7
20180920164010 51 293 6.0 10.0 0.00 0.00 0.00 82 1003.7
20180920163505 51 298 6.0 10.0 0.00 0.00 0.00 82 1003.6
20180920163010 51 305 5.0 10.0 0.00 0.00 0.00 82 1003.6
20180920162505 51 305 4.0 10.0 0.00 0.00 0.00 82 1003.7
20180920162009 51 286 3.0 8.0 0.00 0.00 0.00 82 1003.7
20180920161505 51 278 3.0 8.0 0.00 0.00 0.00 82 1003.7
20180920161009 51 291 4.0 9.0 0.00 0.00 0.00 81 1003.5
20180920160504 51 302 5.0 10.0 0.00 0.00 0.00 81 1003.5
20180920160008 51 299 5.0 11.0 0.00 0.00 0.00 81 1003.5
20180920155505 51 288 5.0 11.0 0.00 0.00 0.00 80 1003.4
20180920155009 51 279 4.0 10.0 0.00 0.00 0.00 79 1003.5
20180920154504 51 283 4.0 8.0 0.00 0.00 0.00 78 1003.5
20180920154009 51 290 4.0 6.0 0.00 0.00 0.00 78 1003.6
20180920153505 51 296 4.0 8.0 0.00 0.00 0.00 77 1003.5
20180920153009 51 297 4.0 8.0 0.00 0.00 0.00 77 1003.6
20180920152504 51 305 4.0 10.0 0.00 0.00 0.00 76 1003.4
20180920152009 51 314 4.0 10.0 0.00 0.00 0.00 75 1003.3
20180920151505 51 308 3.0 6.0 0.00 0.00 0.00 74 1003.3
20180920151009 52 302 3.0 8.0 0.00 0.00 0.00 73 1003.2
20180920150504 52 291 3.0 8.0 0.00 0.00 0.00 72 1003.2
20180920150009 52 278 3.0 6.0 0.00 0.00 0.00 71 1003.2
20180920145504 53 273 4.0 7.0 0.00 0.00 0.00 70 1003.2
20180920145009 53 270 5.0 8.0 0.00 0.00 0.00 69 1003.1
20180920144505 53 270 5.0 8.0 0.00 0.00 0.00 68 1003.2
20180920144008 54 270 4.0 7.0 0.00 0.00 0.00 67 1003.1
20180920143506 54 283 3.0 6.0 0.00 0.00 0.00 66 1003.0
20180920143009 54 295 3.0 7.0 0.00 0.00 0.00 66 1003.0
20180920142504 54 291 3.0 7.0 0.00 0.00 0.00 65 1003.0
20180920142009 54 292 2.0 5.0 0.00 0.00 0.00 65 1002.9
20180920141504 55 306 1.0 4.0 0.00 0.00 0.00 65 1002.9
20180920141009 55 314 1.0 3.0 0.00 0.00 0.00 64 1002.7
20180920140504 55 329 1.0 3.0 0.00 0.00 0.00 64 1002.8
20180920140008 55 348 1.0 3.0 0.00 0.00 0.00 63 1002.7
20180920135504 56 353 1.0 3.0 0.00 0.00 0.00 62 1002.7
20180920135009 56 350 1.0 4.0 0.00 0.00 0.00 62 1002.6
20180920134505 56 345 2.0 4.0 0.00 0.00 0.00 61 1002.5
20180920134010 56 341 2.0 4.0 0.00 0.00 0.00 61 1002.6
20180920133508 56 333 2.0 4.0 0.00 0.00 0.00 60 1002.4
20180920133009 57 322 2.0 4.0 0.00 0.00 0.00 60 1002.5
20180920132505 57 315 2.0 4.0 0.00 0.00 0.00 60 1002.5
20180920132009 57 320 2.0 6.0 0.00 0.00 0.00 59 1002.5
20180920131506 57 325 3.0 8.0 0.00 0.00 0.00 59 1002.5
20180920131009 57 321 3.0 8.0 0.00 0.00 0.00 59 1002.4
20180920130504 57 316 2.0 7.0 0.00 0.00 0.00 60 1002.4
20180920130009 57 321 3.0 7.0 0.00 0.00 0.00 60 1002.5
20180920125505 57 317 3.0 8.0 0.00 0.00 0.00 59 1002.4
20180920125008 57 312 4.0 9.0 0.00 0.00 0.00 59 1002.5
20180920124504 57 314 4.0 9.0 0.00 0.00 0.00 59 1002.4
20180920124008 57 311 4.0 9.0 0.00 0.00 0.00 59 1002.5
20180920123505 57 308 4.0 9.0 0.00 0.00 0.00 59 1002.3
20180920123009 57 314 5.0 9.0 0.00 0.00 0.00 58 1002.4
20180920122504 58 317 5.0 8.0 0.00 0.00 0.00 58 1002.3
20180920122009 58 308 5.0 10.0 0.00 0.00 0.00 56 1002.3
20180920121505 58 296 6.0 10.0 0.00 0.00 0.00 56 1002.2
20180920121009 58 289 4.0 9.0 0.00 0.00 0.00 55 1002.1
20180920120505 58 294 4.0 9.0 0.00 0.00 0.00 56 1002.2
20180920120009 58 310 4.0 9.0 0.00 0.00 0.00 55 1002.2
20180920115505 58 311 3.0 6.0 0.00 0.00 0.00 54 1002.2
20180920115116 58 287 3.0 7.0 0.00 0.00 0.00 54 1002.2
20180920114537 58 284 3.0 8.0 0.00 0.00 0.00 53 1002.2
20180920114009 58 297 4.0 8.0 0.00 0.00 0.00 53 1002.0
20180920113504 58 295 4.0 8.0 0.00 0.00 0.00 53 1002.0
20180920113010 58 289 3.0 8.0 0.00 0.00 0.00 54 1002.1
20180920112504 58 284 3.0 6.0 0.00 0.00 0.00 55 1002.0
20180920112009 58 277 3.0 6.0 0.00 0.00 0.00 55 1002.0
20180920111505 58 286 2.0 5.0 0.00 0.00 0.00 55 1001.9
20180920111009 58 285 2.0 5.0 0.00 0.00 0.00 56 1001.9
20180920110504 58 289 2.0 5.0 0.00 0.00 0.00 56 1001.9
20180920110009 58 287 2.0 5.0 0.00 0.00 0.00 56 1002.0
20180920105505 58 290 3.0 6.0 0.00 0.00 0.00 56 1002.0
20180920105009 58 290 3.0 6.0 0.00 0.00 0.00 56 1002.0
20180920104504 58 290 3.0 6.0 0.00 0.00 0.00 56 1001.8
20180920104010 58 289 3.0 6.0 0.00 0.00 0.00 56 1001.9
20180920103505 58 296 3.0 6.0 0.00 0.00 0.00 56 1001.9
20180920103009 58 318 2.0 6.0 0.00 0.00 0.00 56 1001.8
20180920102505 58 312 2.0 5.0 0.00 0.00 0.00 57 1001.8
20180920102009 58 301 1.0 5.0 0.00 0.00 0.00 57 1001.6
20180920101009 57 312 2.0 5.0 0.00 0.00 0.00 57 1001.7
20180920100504 57 287 3.0 5.0 0.00 0.00 0.00 57 1001.5
20180920100010 57 290 2.0 6.0 0.00 0.00 0.00 58 1001.8
20180920095505 57 310 1.0 6.0 0.00 0.00 0.00 58 1001.7
20180920095011 57 1 0.0 2.0 0.00 0.00 0.00 58 1001.6
20180920094505 57 1 0.0 3.0 0.00 0.00 0.00 58 1001.6
20180920094008 57 4 1.0 3.0 0.00 0.00 0.00 58 1001.5
20180920093507 57 337 1.0 4.0 0.00 0.00 0.00 58 1001.5
20180920093010 57 331 2.0 4.0 0.00 0.00 0.00 58 1001.3
20180920092505 58 326 1.0 4.0 0.00 0.00 0.00 58 1001.3
20180920092012 57 309 2.0 4.0 0.00 0.00 0.00 58 1001.3
20180920091515 58 313 2.0 4.0 0.00 0.00 0.00 58 1001.2
20180920091009 58 326 2.0 4.0 0.00 0.00 0.00 58 1001.2
20180920090506 58 348 2.0 5.0 0.00 0.00 0.00 57 1001.2
20180920090010 58 329 2.0 5.0 0.00 0.00 0.00 57 1001.2
20180920085504 58 287 2.0 5.0 0.00 0.00 0.00 57 1001.1
20180920085011 58 257 2.0 8.0 0.00 0.00 0.00 56 1001.2
20180920084505 58 204 2.0 8.0 0.00 0.00 0.00 56 1001.1